Location: Domont
(49.0278°N, 2.3264°E)
Time: 12:03:30
(UTC+00:00)

Cosmos 1626 Rocket - Pass Details

Date: 06 June 2022
Orbit: 602 x 631 km, 82.5° (Epoch: 01 July)

Event Time Altitude Azimuth Distance (km) Brightness Sun altitude
Exits shadow 02:00:43 - 165° (SSE) 2,045 5.8 -12.6°
Reaches altitude 10° 02:00:56 10° 165° (SSE) 1,966 5.7 -12.6°
Maximum altitude 02:05:03 44° 93° (E) 849 4.5 -12.2°
Drops below altitude 10° 02:09:11 10° 22° (NNE) 1,967 7.6 -11.8°
Sets 02:11:28 0° 16° (NNE) 2,873 8.6 -11.6°
